This is the latest recevied weather packets stored in our database for station/object KQ4PPF. If no packets are shown the sender has not sent any weather packets the latest 1 day(s).
| Time | Temp. | Humidity | Pressure | Rain* | Wind** | Luminosity | Snow |
|---|---|---|---|---|---|---|---|
| 1778076662 | 17.78° C | 99% | 1014.2 hPa | 0 mm | - | 8 W/m² | - |
| 1778076359 | 17.78° C | 99% | 1014 hPa | 0 mm | - | 12 W/m² | - |
| 1778076056 | 17.78° C | 99% | 1014.2 hPa | 0 mm | - | 2 W/m² | - |
| 1778075753 | 17.78° C | 98% | 1013.9 hPa | 0 mm | - | 4 W/m² | - |
| 1778075449 | 17.78° C | 98% | 1013.9 hPa | 0 mm | - | 5 W/m² | - |
| 1778075146 | 17.78° C | 98% | 1013.5 hPa | 0 mm | - | 6 W/m² | - |
| 1778074539 | 17.78° C | 98% | 1013.4 hPa | 0 mm | - | 16 W/m² | - |
| 1778070907 | 18.33° C | 95% | 1012.3 hPa | 0 mm | - | 0 W/m² | - |
| 1778069696 | 17.78° C | 95% | 1011.8 hPa | 0 mm | - | 1 W/m² | - |
| 1778067277 | 17.78° C | 94% | 1011.3 hPa | 0 mm | - | 3 W/m² | - |
| 1778066973 | 17.78° C | 94% | 1011.4 hPa | 0 mm | - | 2 W/m² | - |
| 1778066671 | 17.78° C | 93% | 1011 hPa | 0 mm | - | 3 W/m² | - |
| 1778066066 | 18.33° C | 93% | 1011.5 hPa | 0 mm | - | 0 W/m² | - |
| 1778064550 | 18.89° C | 87% | 1011 hPa | 0 mm | - | 0 W/m² | - |
| 1778063340 | 19.44° C | 84% | 1010.5 hPa | 0 mm | - | 0 W/m² | - |
| 1778062431 | 20° C | 80% | 1010.3 hPa | 0 mm | - | 0 W/m² | - |
| 1778062129 | 20° C | 79% | 1010.4 hPa | 0 mm | - | 0 W/m² | - |
| 1778061525 | 20° C | 78% | 1010.1 hPa | 0 mm | - | 0 W/m² | - |
| 1778060918 | 20° C | 77% | 1010.3 hPa | 0 mm | - | 0 W/m² | - |
| 1778060315 | 20° C | 77% | 1010.5 hPa | 0 mm | - | 0 W/m² | - |
| 1778060012 | 20° C | 76% | 1010.5 hPa | 0 mm | - | 0 W/m² | - |
| 1778059407 | 20° C | 76% | 1010.6 hPa | 0 mm | - | 0 W/m² | - |
| 1778059104 | 20° C | 76% | 1010.5 hPa | 0 mm | - | 0 W/m² | - |
| 1778057893 | 20° C | 76% | 1010.6 hPa | 0 mm | - | 0 W/m² | - |
| 1778057589 | 20° C | 75% | 1010.5 hPa | 0 mm | - | 0 W/m² | - |
* Rain latest hour (hover to see other rain measurements)
** Current wind speed in m/s (hover to see current wind gust speed)